| time (UTC) | temp F | wind direction | speed MPH | gust MPH | rain 1hr in | rain 24hr in | rain mn in | humidity % | barometer mb |
| 20260901110501 | 83 | 96 | 3.0 | 11.0 | 0.00 | 0.00 | 0.00 | 56 | 1018.3 |
| 20260901110002 | 83 | 65 | 5.0 | 11.0 | 0.00 | 0.00 | 0.00 | 57 | 1018.4 |
| 20260901105501 | 83 | 121 | 4.0 | 12.0 | 0.00 | 0.00 | 0.00 | 57 | 1018.3 |
| 20260901104001 | 83 | 120 | 3.0 | 12.0 | 0.00 | 0.00 | 0.00 | 60 | 1018.3 |
| 20260901103502 | 83 | 61 | 3.0 | 12.0 | 0.00 | 0.00 | 0.00 | 59 | 1018.3 |
| 20260901103001 | 83 | 86 | 4.0 | 13.0 | 0.00 | 0.00 | 0.00 | 60 | 1018.4 |
| 20260901102501 | 83 | 105 | 4.0 | 13.0 | 0.00 | 0.00 | 0.00 | 61 | 1018.4 |
| 20260901102001 | 83 | 123 | 5.0 | 12.0 | 0.00 | 0.00 | 0.00 | 61 | 1018.4 |
| 20260901101501 | 82 | 67 | 4.0 | 13.0 | 0.00 | 0.00 | 0.00 | 61 | 1018.5 |
| 20260901101001 | 82 | 86 | 2.0 | 13.0 | 0.00 | 0.00 | 0.00 | 61 | 1018.5 |
| 20260901100501 | 82 | 95 | 2.0 | 11.0 | 0.00 | 0.00 | 0.00 | 61 | 1018.5 |
| 20260901100000 | 82 | 72 | 2.0 | 10.0 | 0.00 | 0.00 | 0.00 | 61 | 1018.6 |
| 20260901095501 | 82 | 90 | 2.0 | 9.0 | 0.00 | 0.00 | 0.00 | 62 | 1018.6 |
| 20260901095001 | 82 | 115 | 3.0 | 9.0 | 0.00 | 0.00 | 0.00 | 63 | 1018.5 |
| 20260901094003 | 82 | 48 | 3.0 | 8.0 | 0.00 | 0.00 | 0.00 | 63 | 1018.6 |
| 20260901093501 | 81 | 63 | 3.0 | 11.0 | 0.00 | 0.00 | 0.00 | 63 | 1018.6 |
| 20260901093001 | 81 | 103 | 4.0 | 11.0 | 0.00 | 0.00 | 0.00 | 61 | 1018.7 |
| 20260901092501 | 82 | 103 | 3.0 | 12.0 | 0.00 | 0.00 | 0.00 | 61 | 1018.7 |
| 20260901092001 | 81 | 91 | 2.0 | 10.0 | 0.00 | 0.00 | 0.00 | 61 | 1018.7 |
| 20260901091001 | 80 | 29 | 3.0 | 11.0 | 0.00 | 0.00 | 0.00 | 59 | 1018.6 |
| 20260901090501 | 80 | 82 | 4.0 | 12.0 | 0.00 | 0.00 | 0.00 | 58 | 1018.7 |
| 20260901090001 | 80 | 101 | 4.0 | 12.0 | 0.00 | 0.00 | 0.00 | 58 | 1018.6 |
| 20260901085502 | 80 | 150 | 3.0 | 12.0 | 0.00 | 0.00 | 0.00 | 58 | 1018.6 |
| 20260901085001 | 80 | 107 | 3.0 | 10.0 | 0.00 | 0.00 | 0.00 | 57 | 1018.6 |
| 20260901084001 | 80 | 82 | 2.0 | 10.0 | 0.00 | 0.00 | 0.00 | 58 | 1018.6 |
| 20260901083504 | 79 | 355 | 3.0 | 10.0 | 0.00 | 0.00 | 0.00 | 58 | 1018.5 |
| 20260901082958 | 79 | 56 | 3.0 | 10.0 | 0.00 | 0.00 | 0.00 | 57 | 1018.5 |
| 20260901082457 | 79 | 140 | 3.0 | 11.0 | 0.00 | 0.00 | 0.00 | 58 | 1018.5 |
| 20260901081455 | 78 | 0 | 3.0 | 14.0 | 0.00 | 0.00 | 0.00 | 58 | 1018.4 |
| 20260901080955 | 78 | 9 | 2.0 | 10.0 | 0.00 | 0.00 | 0.00 | 57 | 1018.3 |
| 20260901080455 | 78 | 23 | 2.0 | 10.0 | 0.00 | 0.00 | 0.00 | 57 | 1018.3 |
| 20260901075955 | 78 | 117 | 2.0 | 9.0 | 0.00 | 0.00 | 0.00 | 58 | 1018.2 |
| 20260901075455 | 78 | 96 | 2.0 | 11.0 | 0.00 | 0.00 | 0.00 | 58 | 1018.1 |
| 20260901074455 | 78 | 310 | 2.0 | 10.0 | 0.00 | 0.00 | 0.00 | 59 | 1018.0 |
| 20260901073955 | 77 | 11 | 1.0 | 10.0 | 0.00 | 0.00 | 0.00 | 59 | 1018.0 |
| 20260901073453 | 77 | 96 | 2.0 | 10.0 | 0.00 | 0.00 | 0.00 | 60 | 1017.9 |
| 20260901072951 | 76 | 45 | 1.0 | 8.0 | 0.00 | 0.00 | 0.00 | 60 | 1017.9 |
| 20260901072449 | 76 | 351 | 1.0 | 5.0 | 0.00 | 0.00 | 0.00 | 60 | 1017.8 |
| 20260901071950 | 76 | 5 | 1.0 | 7.0 | 0.00 | 0.00 | 0.00 | 61 | 1017.8 |
| 20260901071449 | 75 | 68 | 1.0 | 7.0 | 0.00 | 0.00 | 0.00 | 62 | 1017.8 |
| 20260901070949 | 75 | 5 | 2.0 | 9.0 | 0.00 | 0.00 | 0.00 | 62 | 1017.8 |
| 20260901065947 | 74 | 22 | 1.0 | 7.0 | 0.00 | 0.00 | 0.00 | 63 | 1017.8 |
| 20260901065445 | 74 | 43 | 1.0 | 7.0 | 0.00 | 0.00 | 0.00 | 64 | 1017.8 |
| 20260901064445 | 73 | 22 | 0.0 | 5.0 | 0.00 | 0.00 | 0.00 | 65 | 1017.7 |
| 20260901063945 | 73 | 41 | 1.0 | 10.0 | 0.00 | 0.00 | 0.00 | 65 | 1017.7 |
| 20260901063442 | 73 | 30 | 2.0 | 10.0 | 0.00 | 0.00 | 0.00 | 65 | 1017.7 |
| 20260901062942 | 73 | 14 | 2.0 | 8.0 | 0.00 | 0.00 | 0.00 | 65 | 1017.7 |
| 20260901062442 | 73 | 74 | 2.0 | 9.0 | 0.00 | 0.00 | 0.00 | 66 | 1017.6 |
| 20260901061943 | 72 | 37 | 1.0 | 9.0 | 0.00 | 0.00 | 0.00 | 66 | 1017.6 |
| 20260901061443 | 72 | 9 | 1.0 | 7.0 | 0.00 | 0.00 | 0.00 | 66 | 1017.6 |
| 20260901060943 | 72 | 10 | 2.0 | 7.0 | 0.00 | 0.00 | 0.00 | 66 | 1017.5 |
| 20260901055938 | 72 | 355 | 1.0 | 8.0 | 0.00 | 0.00 | 0.00 | 65 | 1017.3 |
| 20260901054939 | 72 | 49 | 0.0 | 5.0 | 0.00 | 0.00 | 0.00 | 66 | 1017.3 |
| 20260901054439 | 71 | 47 | 1.0 | 5.0 | 0.00 | 0.00 | 0.00 | 65 | 1017.3 |
| 20260901053939 | 71 | 21 | 0.0 | 4.0 | 0.00 | 0.00 | 0.00 | 65 | 1017.2 |
| 20260901052938 | 71 | 52 | 0.0 | 8.0 | 0.00 | 0.00 | 0.00 | 66 | 1017.1 |
| 20260901052439 | 71 | 30 | 0.0 | 2.0 | 0.00 | 0.00 | 0.00 | 66 | 1017.1 |
| 20260901051438 | 71 | 33 | 0.0 | 3.0 | 0.00 | 0.00 | 0.00 | 66 | 1017.0 |
| 20260901050937 | 71 | 10 | 0.0 | 0.0 | 0.00 | 0.00 | 0.00 | 66 | 1017.0 |
| 20260901050436 | 71 | 44 | 0.0 | 1.0 | 0.00 | 0.00 | 0.00 | 66 | 1017.0 |
| 20260901045934 | 71 | 350 | 0.0 | 1.0 | 0.00 | 0.00 | 0.00 | 66 | 1016.9 |
| 20260901045435 | 71 | 0 | 0.0 | 0.0 | 0.00 | 0.00 | 0.00 | 66 | 1016.8 |
| 20260901044929 | 71 | 32 | 0.0 | 0.0 | 0.00 | 0.00 | 0.00 | 66 | 1016.8 |
| 20260901044430 | 71 | 5 | 0.0 | 3.0 | 0.00 | 0.00 | 0.00 | 66 | 1016.7 |
| 20260901043929 | 71 | 20 | 0.0 | 3.0 | 0.00 | 0.00 | 0.00 | 66 | 1016.7 |
| 20260901043431 | 71 | 56 | 0.0 | 1.0 | 0.00 | 0.00 | 0.00 | 66 | 1016.7 |
| 20260901042930 | 71 | 5 | 0.0 | 2.0 | 0.00 | 0.00 | 0.00 | 66 | 1016.6 |
| 20260901042429 | 71 | 24 | 0.0 | 2.0 | 0.00 | 0.00 | 0.00 | 66 | 1016.7 |
| 20260901041929 | 71 | 22 | 0.0 | 4.0 | 0.00 | 0.00 | 0.00 | 66 | 1016.7 |
| 20260901041428 | 71 | 40 | 0.0 | 4.0 | 0.00 | 0.00 | 0.00 | 66 | 1016.6 |
| 20260901040929 | 71 | 35 | 0.0 | 3.0 | 0.00 | 0.00 | 0.00 | 66 | 1016.5 |
| 20260901040426 | 71 | 38 | 0.0 | 3.0 | 0.00 | 0.00 | 0.00 | 66 | 1016.4 |
| 20260901035919 | 71 | 23 | 0.0 | 3.0 | 0.00 | 0.00 | 0.00 | 66 | 1016.5 |
| 20260901035415 | 71 | 9 | 0.0 | 3.0 | 0.00 | 0.00 | 0.00 | 66 | 1016.4 |
| 20260901034404 | 71 | 17 | 1.0 | 5.0 | 0.00 | 0.00 | 0.00 | 66 | 1016.3 |
| 20260901032903 | 71 | 14 | 0.0 | 3.0 | 0.00 | 0.00 | 0.00 | 65 | 1016.1 |
| 20260901031902 | 71 | 63 | 0.0 | 4.0 | 0.00 | 0.00 | 0.00 | 65 | 1016.0 |
| 20260901031403 | 71 | 50 | 1.0 | 4.0 | 0.00 | 0.00 | 0.00 | 65 | 1016.0 |
| 20260901030905 | 71 | 90 | 1.0 | 4.0 | 0.00 | 0.00 | 0.00 | 65 | 1016.0 |
| 20260901030402 | 71 | 51 | 0.0 | 3.0 | 0.00 | 0.00 | 0.00 | 64 | 1016.0 |
| 20260901025905 | 72 | 46 | 0.0 | 2.0 | 0.00 | 0.00 | 0.00 | 64 | 1016.0 |
| 20260901025402 | 72 | 33 | 1.0 | 4.0 | 0.00 | 0.00 | 0.00 | 64 | 1016.1 |
| 20260901024902 | 72 | 34 | 1.0 | 4.0 | 0.00 | 0.00 | 0.00 | 63 | 1016.2 |
| 20260901024402 | 72 | 17 | 1.0 | 5.0 | 0.00 | 0.00 | 0.00 | 63 | 1016.0 |
| 20260901023401 | 72 | 59 | 1.0 | 6.0 | 0.00 | 0.00 | 0.00 | 63 | 1016.1 |
| 20260901022903 | 72 | 355 | 1.0 | 6.0 | 0.00 | 0.00 | 0.00 | 63 | 1016.0 |
| 20260901022403 | 72 | 71 | 1.0 | 7.0 | 0.00 | 0.00 | 0.00 | 62 | 1016.1 |
| 20260901021859 | 73 | 24 | 1.0 | 7.0 | 0.00 | 0.00 | 0.00 | 62 | 1016.0 |
| 20260901021354 | 73 | 19 | 1.0 | 4.0 | 0.00 | 0.00 | 0.00 | 62 | 1016.0 |
| 20260901020848 | 73 | 76 | 1.0 | 8.0 | 0.00 | 0.00 | 0.00 | 62 | 1015.9 |
| 20260901020340 | 73 | 44 | 2.0 | 8.0 | 0.00 | 0.00 | 0.00 | 62 | 1015.9 |
| 20260901015837 | 73 | 355 | 3.0 | 11.0 | 0.00 | 0.00 | 0.00 | 62 | 1015.8 |
| 20260901015338 | 73 | 36 | 2.0 | 11.0 | 0.00 | 0.00 | 0.00 | 62 | 1015.8 |
| 20260901014833 | 73 | 18 | 1.0 | 5.0 | 0.00 | 0.00 | 0.00 | 64 | 1015.8 |
| 20260901014334 | 73 | 70 | 1.0 | 4.0 | 0.00 | 0.00 | 0.00 | 65 | 1015.8 |
| 20260901013833 | 74 | 76 | 2.0 | 10.0 | 0.00 | 0.00 | 0.00 | 66 | 1015.8 |
| 20260901013337 | 74 | 88 | 3.0 | 10.0 | 0.00 | 0.00 | 0.00 | 66 | 1015.8 |
| 20260901012831 | 74 | 31 | 3.0 | 10.0 | 0.00 | 0.00 | 0.00 | 66 | 1015.8 |
| 20260901012331 | 74 | 60 | 3.0 | 9.0 | 0.00 | 0.00 | 0.00 | 67 | 1015.8 |
| 20260901011831 | 74 | 117 | 4.0 | 10.0 | 0.00 | 0.00 | 0.00 | 67 | 1015.7 |
| 20260901011330 | 74 | 76 | 3.0 | 11.0 | 0.00 | 0.00 | 0.00 | 68 | 1015.7 |
| 20260901010831 | 74 | 100 | 2.0 | 11.0 | 0.00 | 0.00 | 0.00 | 69 | 1015.7 |
| 20260901010330 | 74 | 35 | 4.0 | 10.0 | 0.00 | 0.00 | 0.00 | 70 | 1015.6 |
| 20260901005831 | 74 | 98 | 4.0 | 11.0 | 0.00 | 0.00 | 0.00 | 71 | 1015.5 |
| 20260901005331 | 74 | 89 | 5.0 | 14.0 | 0.00 | 0.00 | 0.00 | 73 | 1015.6 |
| 20260901004831 | 74 | 92 | 6.0 | 14.0 | 0.00 | 0.00 | 0.00 | 75 | 1015.6 |
| 20260901003330 | 74 | 95 | 5.0 | 13.0 | 0.00 | 0.00 | 0.00 | 81 | 1015.5 |
| 20260901002827 | 74 | 116 | 4.0 | 11.0 | 0.00 | 0.00 | 0.00 | 82 | 1015.6 |
| 20260901002321 | 74 | 17 | 3.0 | 12.0 | 0.00 | 0.00 | 0.00 | 83 | 1015.5 |
| 20260901001819 | 74 | 105 | 3.0 | 12.0 | 0.00 | 0.00 | 0.00 | 83 | 1015.5 |
| 20260901001319 | 74 | 105 | 3.0 | 13.0 | 0.00 | 0.00 | 0.00 | 83 | 1015.4 |
| 20260901000321 | 74 | 71 | 1.0 | 9.0 | 0.00 | 0.00 | 0.00 | 83 | 1015.2 |
| 20260831235819 | 74 | 84 | 1.0 | 5.0 | 0.00 | 0.00 | 0.00 | 83 | 1015.2 |
| 20260831235319 | 74 | 32 | 1.0 | 8.0 | 0.00 | 0.00 | 0.00 | 83 | 1015.2 |
| 20260831234819 | 74 | 24 | 1.0 | 8.0 | 0.00 | 0.00 | 0.00 | 83 | 1015.2 |
| 20260831234317 | 74 | 5 | 2.0 | 9.0 | 0.00 | 0.00 | 0.00 | 83 | 1015.0 |
| 20260831233817 | 74 | 35 | 1.0 | 9.0 | 0.00 | 0.00 | 0.00 | 82 | 1015.1 |
| 20260831233317 | 74 | 37 | 1.0 | 4.0 | 0.00 | 0.00 | 0.00 | 82 | 1014.9 |
| 20260831232818 | 74 | 36 | 1.0 | 4.0 | 0.00 | 0.00 | 0.00 | 82 | 1014.9 |
| 20260831232317 | 74 | 37 | 2.0 | 5.0 | 0.00 | 0.00 | 0.00 | 82 | 1014.7 |
| 20260831231815 | 74 | 31 | 1.0 | 5.0 | 0.00 | 0.00 | 0.00 | 82 | 1014.7 |
| 20260831231316 | 74 | 18 | 0.0 | 1.0 | 0.00 | 0.00 | 0.00 | 82 | 1014.5 |
| 20260831230314 | 74 | 71 | 0.0 | 3.0 | 0.00 | 0.00 | 0.00 | 82 | 1014.4 |
| 20260831225311 | 74 | 80 | 0.0 | 0.0 | 0.00 | 0.00 | 0.00 | 82 | 1014.2 |
| 20260831224811 | 74 | 79 | 0.0 | 1.0 | 0.00 | 0.00 | 0.00 | 82 | 1014.2 |
| 20260831224311 | 74 | 79 | 0.0 | 1.0 | 0.00 | 0.00 | 0.00 | 81 | 1014.2 |
| 20260831223811 | 74 | 79 | 0.0 | 0.0 | 0.00 | 0.00 | 0.00 | 81 | 1014.1 |
| 20260831223310 | 74 | 80 | 0.0 | 2.0 | 0.00 | 0.00 | 0.00 | 81 | 1014.0 |
| 20260831222811 | 74 | 79 | 0.0 | 2.0 | 0.00 | 0.00 | 0.00 | 81 | 1014.0 |
| 20260831222311 | 74 | 80 | 0.0 | 1.0 | 0.00 | 0.00 | 0.00 | 81 | 1013.9 |
| 20260831221811 | 74 | 80 | 0.0 | 1.0 | 0.00 | 0.00 | 0.00 | 80 | 1013.8 |
| 20260831221313 | 74 | 80 | 0.0 | 2.0 | 0.00 | 0.00 | 0.00 | 80 | 1013.8 |
| 20260831220811 | 74 | 80 | 1.0 | 4.0 | 0.00 | 0.00 | 0.00 | 80 | 1013.9 |
| 20260831220311 | 74 | 80 | 1.0 | 4.0 | 0.00 | 0.00 | 0.00 | 80 | 1013.9 |
| 20260831215810 | 75 | 75 | 0.0 | 0.0 | 0.00 | 0.00 | 0.00 | 79 | 1014.0 |
| 20260831214808 | 75 | 169 | 0.0 | 0.0 | 0.00 | 0.00 | 0.00 | 78 | 1013.8 |
| 20260831214308 | 75 | 169 | 0.0 | 0.0 | 0.00 | 0.00 | 0.00 | 78 | 1013.8 |
| 20260831213805 | 75 | 170 | 0.0 | 0.0 | 0.00 | 0.00 | 0.00 | 78 | 1013.8 |
| 20260831213304 | 75 | 170 | 0.0 | 0.0 | 0.00 | 0.00 | 0.00 | 77 | 1013.8 |
| 20260831212803 | 76 | 182 | 0.0 | 0.0 | 0.00 | 0.00 | 0.00 | 77 | 1013.8 |
| 20260831211801 | 76 | 196 | 0.0 | 0.0 | 0.00 | 0.00 | 0.00 | 76 | 1013.6 |
| 20260831210802 | 76 | 196 | 0.0 | 0.0 | 0.00 | 0.00 | 0.00 | 76 | 1013.6 |
| 20260831205802 | 76 | 203 | 0.0 | 0.0 | 0.00 | 0.00 | 0.00 | 75 | 1013.4 |
| 20260831205305 | 76 | 203 | 0.0 | 0.0 | 0.00 | 0.00 | 0.00 | 75 | 1013.4 |
| 20260831204802 | 76 | 203 | 0.0 | 0.0 | 0.00 | 0.00 | 0.00 | 74 | 1013.3 |
| 20260831204302 | 77 | 203 | 0.0 | 0.0 | 0.00 | 0.00 | 0.00 | 74 | 1013.4 |
| 20260831203802 | 77 | 203 | 0.0 | 0.0 | 0.00 | 0.00 | 0.00 | 74 | 1013.4 |
| 20260831203301 | 77 | 203 | 0.0 | 0.0 | 0.00 | 0.00 | 0.00 | 74 | 1013.3 |
| 20260831202306 | 77 | 203 | 0.0 | 0.0 | 0.00 | 0.00 | 0.00 | 73 | 1013.3 |
| 20260831201802 | 78 | 203 | 0.0 | 0.0 | 0.00 | 0.00 | 0.00 | 73 | 1013.2 |
| 20260831201301 | 78 | 203 | 0.0 | 0.0 | 0.00 | 0.00 | 0.00 | 72 | 1013.1 |
| 20260831200802 | 78 | 203 | 0.0 | 0.0 | 0.00 | 0.00 | 0.00 | 72 | 1013.1 |
| 20260831200302 | 78 | 203 | 0.0 | 0.0 | 0.00 | 0.00 | 0.00 | 72 | 1013.2 |
| 20260831195802 | 78 | 203 | 0.0 | 0.0 | 0.00 | 0.00 | 0.00 | 71 | 1013.1 |
| 20260831195302 | 78 | 202 | 0.0 | 3.0 | 0.00 | 0.00 | 0.00 | 71 | 1013.1 |
| 20260831194802 | 78 | 231 | 1.0 | 6.0 | 0.00 | 0.00 | 0.00 | 71 | 1013.0 |
| 20260831194302 | 78 | 205 | 1.0 | 6.0 | 0.00 | 0.00 | 0.00 | 70 | 1012.9 |
| 20260831193302 | 79 | 200 | 1.0 | 9.0 | 0.00 | 0.00 | 0.00 | 70 | 1012.8 |
| 20260831192805 | 79 | 205 | 2.0 | 9.0 | 0.00 | 0.00 | 0.00 | 69 | 1012.8 |
| 20260831192305 | 79 | 197 | 1.0 | 9.0 | 0.00 | 0.00 | 0.00 | 69 | 1012.7 |
| 20260831191803 | 79 | 197 | 0.0 | 6.0 | 0.00 | 0.00 | 0.00 | 68 | 1012.7 |
| 20260831191302 | 80 | 205 | 0.0 | 1.0 | 0.00 | 0.00 | 0.00 | 68 | 1012.7 |
| 20260831190804 | 80 | 168 | 0.0 | 3.0 | 0.00 | 0.00 | 0.00 | 67 | 1012.7 |
| 20260831190302 | 80 | 189 | 1.0 | 4.0 | 0.00 | 0.00 | 0.00 | 67 | 1012.7 |
| 20260831185802 | 80 | 196 | 0.0 | 4.0 | 0.00 | 0.00 | 0.00 | 66 | 1012.7 |
| 20260831185302 | 80 | 227 | 0.0 | 4.0 | 0.00 | 0.00 | 0.00 | 66 | 1012.6 |
| 20260831184802 | 81 | 195 | 1.0 | 5.0 | 0.00 | 0.00 | 0.00 | 66 | 1012.5 |
| 20260831183802 | 81 | 196 | 1.0 | 8.0 | 0.00 | 0.00 | 0.00 | 65 | 1012.4 |
| 20260831183304 | 81 | 181 | 0.0 | 4.0 | 0.00 | 0.00 | 0.00 | 65 | 1012.4 |
| 20260831182802 | 81 | 196 | 1.0 | 3.0 | 0.00 | 0.00 | 0.00 | 65 | 1012.3 |
| 20260831182300 | 82 | 215 | 0.0 | 0.0 | 0.00 | 0.00 | 0.00 | 64 | 1012.2 |
| 20260831181824 | 82 | 204 | 0.0 | 4.0 | 0.00 | 0.00 | 0.00 | 64 | 1012.2 |
| 20260831181321 | 82 | 150 | 0.0 | 4.0 | 0.00 | 0.00 | 0.00 | 63 | 1012.1 |
| 20260831180821 | 83 | 175 | 0.0 | 4.0 | 0.00 | 0.00 | 0.00 | 62 | 1012.1 |
| 20260831180319 | 83 | 182 | 0.0 | 4.0 | 0.00 | 0.00 | 0.00 | 61 | 1012.1 |
| 20260831175819 | 84 | 164 | 0.0 | 0.0 | 0.00 | 0.00 | 0.00 | 61 | 1012.1 |
| 20260831175317 | 84 | 192 | 0.0 | 0.0 | 0.00 | 0.00 | 0.00 | 60 | 1012.0 |
| 20260831174815 | 85 | 202 | 0.0 | 5.0 | 0.00 | 0.00 | 0.00 | 59 | 1012.0 |
| 20260831174314 | 85 | 180 | 0.0 | 5.0 | 0.00 | 0.00 | 0.00 | 57 | 1012.1 |
| 20260831173813 | 86 | 192 | 0.0 | 3.0 | 0.00 | 0.00 | 0.00 | 56 | 1012.1 |
| 20260831172804 | 87 | 191 | 0.0 | 5.0 | 0.00 | 0.00 | 0.00 | 54 | 1012.1 |
| 20260831172308 | 88 | 193 | 0.0 | 0.0 | 0.00 | 0.00 | 0.00 | 53 | 1012.1 |
| 20260831171804 | 89 | 186 | 0.0 | 5.0 | 0.00 | 0.00 | 0.00 | 53 | 1012.2 |
| 20260831171303 | 90 | 182 | 0.0 | 5.0 | 0.00 | 0.00 | 0.00 | 52 | 1012.2 |
| 20260831170804 | 90 | 147 | 0.0 | 5.0 | 0.00 | 0.00 | 0.00 | 51 | 1012.2 |
| 20260831170306 | 91 | 177 | 0.0 | 4.0 | 0.00 | 0.00 | 0.00 | 49 | 1012.2 |
| 20260831165802 | 92 | 169 | 0.0 | 4.0 | 0.00 | 0.00 | 0.00 | 46 | 1012.2 |
| 20260831165305 | 92 | 218 | 0.0 | 0.0 | 0.00 | 0.00 | 0.00 | 42 | 1012.2 |
| 20260831164803 | 92 | 232 | 0.0 | 3.0 | 0.00 | 0.00 | 0.00 | 42 | 1012.2 |
| 20260831164303 | 92 | 232 | 0.0 | 5.0 | 0.00 | 0.00 | 0.00 | 42 | 1012.2 |
| 20260831163303 | 92 | 226 | 0.0 | 4.0 | 0.00 | 0.00 | 0.00 | 42 | 1012.3 |
| 20260831162802 | 92 | 246 | 0.0 | 4.0 | 0.00 | 0.00 | 0.00 | 41 | 1012.3 |
| 20260831162305 | 91 | 241 | 0.0 | 4.0 | 0.00 | 0.00 | 0.00 | 42 | 1012.4 |
| 20260831161803 | 91 | 248 | 1.0 | 4.0 | 0.00 | 0.00 | 0.00 | 41 | 1012.5 |
| 20260831160304 | 92 | 229 | 1.0 | 7.0 | 0.00 | 0.00 | 0.00 | 41 | 1012.5 |
| 20260831155157 | 93 | 212 | 1.0 | 6.0 | 0.00 | 0.00 | 0.00 | 41 | 1012.5 |
| 20260831154651 | 93 | 201 | 2.0 | 6.0 | 0.00 | 0.00 | 0.00 | 41 | 1012.5 |
| 20260831154152 | 93 | 237 | 1.0 | 6.0 | 0.00 | 0.00 | 0.00 | 41 | 1012.5 |
| 20260831153650 | 93 | 186 | 1.0 | 7.0 | 0.00 | 0.00 | 0.00 | 40 | 1012.6 |
| 20260831153149 | 93 | 239 | 2.0 | 7.0 | 0.00 | 0.00 | 0.00 | 40 | 1012.6 |
| 20260831152650 | 94 | 238 | 1.0 | 6.0 | 0.00 | 0.00 | 0.00 | 41 | 1012.6 |
| 20260831152149 | 94 | 211 | 1.0 | 5.0 | 0.00 | 0.00 | 0.00 | 41 | 1012.6 |
| 20260831151650 | 93 | 210 | 2.0 | 7.0 | 0.00 | 0.00 | 0.00 | 41 | 1012.7 |
| 20260831151151 | 93 | 197 | 1.0 | 7.0 | 0.00 | 0.00 | 0.00 | 42 | 1012.7 |
| 20260831150649 | 93 | 204 | 2.0 | 7.0 | 0.00 | 0.00 | 0.00 | 42 | 1012.8 |
| 20260831145646 | 92 | 209 | 2.0 | 6.0 | 0.00 | 0.00 | 0.00 | 42 | 1012.8 |
| 20260831145143 | 92 | 235 | 2.0 | 5.0 | 0.00 | 0.00 | 0.00 | 40 | 1012.8 |
| 20260831144641 | 93 | 248 | 1.0 | 8.0 | 0.00 | 0.00 | 0.00 | 41 | 1012.9 |
| 20260831144141 | 92 | 227 | 1.0 | 8.0 | 0.00 | 0.00 | 0.00 | 42 | 1012.9 |
| 20260831143641 | 92 | 195 | 1.0 | 6.0 | 0.00 | 0.00 | 0.00 | 42 | 1012.9 |
| 20260831143142 | 92 | 252 | 2.0 | 14.0 | 0.00 | 0.00 | 0.00 | 41 | 1012.9 |
| 20260831142641 | 92 | 259 | 2.0 | 14.0 | 0.00 | 0.00 | 0.00 | 40 | 1012.9 |
| 20260831142141 | 92 | 244 | 2.0 | 8.0 | 0.00 | 0.00 | 0.00 | 41 | 1012.9 |
| 20260831141640 | 92 | 207 | 2.0 | 8.0 | 0.00 | 0.00 | 0.00 | 42 | 1012.9 |
| 20260831141139 | 91 | 241 | 3.0 | 8.0 | 0.00 | 0.00 | 0.00 | 43 | 1012.9 |
| 20260831140637 | 92 | 284 | 3.0 | 11.0 | 0.00 | 0.00 | 0.00 | 40 | 1012.9 |
| 20260831135637 | 92 | 355 | 1.0 | 8.0 | 0.00 | 0.00 | 0.00 | 42 | 1013.0 |
| 20260831135137 | 91 | 266 | 2.0 | 8.0 | 0.00 | 0.00 | 0.00 | 41 | 1013.0 |
| 20260831133637 | 91 | 229 | 0.0 | 6.0 | 0.00 | 0.00 | 0.00 | 43 | 1013.0 |
| 20260831133136 | 91 | 257 | 1.0 | 9.0 | 0.00 | 0.00 | 0.00 | 42 | 1013.0 |
| 20260831132638 | 92 | 263 | 1.0 | 9.0 | 0.00 | 0.00 | 0.00 | 41 | 1013.1 |
| 20260831132137 | 92 | 213 | 1.0 | 6.0 | 0.00 | 0.00 | 0.00 | 41 | 1013.1 |
| 20260831131634 | 92 | 219 | 1.0 | 0.0 | 0.00 | 0.00 | 0.00 | 43 | 1013.2 |
| 20260831131202 | 91 | 205 | 0.0 | 6.0 | 0.00 | 0.00 | 0.00 | 43 | 1013.2 |
| 20260831130702 | 91 | 252 | 2.0 | 10.0 | 0.00 | 0.00 | 0.00 | 41 | 1013.3 |
| 20260831125701 | 91 | 227 | 2.0 | 9.0 | 0.00 | 0.00 | 0.00 | 42 | 1013.4 |
| 20260831124702 | 92 | 226 | 3.0 | 10.0 | 0.00 | 0.00 | 0.00 | 42 | 1013.6 |
| 20260831124202 | 91 | 220 | 3.0 | 10.0 | 0.00 | 0.00 | 0.00 | 43 | 1013.6 |
| 20260831123701 | 91 | 196 | 2.0 | 9.0 | 0.00 | 0.00 | 0.00 | 43 | 1013.6 |
| 20260831123201 | 91 | 246 | 1.0 | 8.0 | 0.00 | 0.00 | 0.00 | 42 | 1013.7 |
| 20260831122201 | 90 | 296 | 1.0 | 6.0 | 0.00 | 0.00 | 0.00 | 41 | 1013.6 |
| 20260831121702 | 91 | 248 | 2.0 | 10.0 | 0.00 | 0.00 | 0.00 | 41 | 1013.7 |
| 20260831121201 | 91 | 197 | 2.0 | 10.0 | 0.00 | 0.00 | 0.00 | 42 | 1013.7 |
| 20260831120702 | 90 | 211 | 1.0 | 7.0 | 0.00 | 0.00 | 0.00 | 43 | 1013.7 |
| 20260831120201 | 89 | 189 | 1.0 | 7.0 | 0.00 | 0.00 | 0.00 | 44 | 1013.7 |
| 20260831115701 | 89 | 248 | 1.0 | 7.0 | 0.00 | 0.00 | 0.00 | 44 | 1013.7 |
| 20260831114701 | 89 | 266 | 0.0 | 7.0 | 0.00 | 0.00 | 0.00 | 46 | 1013.9 |
| 20260831114200 | 88 | 180 | 0.0 | 7.0 | 0.00 | 0.00 | 0.00 | 46 | 1013.9 |
| 20260831113701 | 88 | 297 | 1.0 | 8.0 | 0.00 | 0.00 | 0.00 | 44 | 1014.0 |
| 20260831113201 | 89 | 267 | 1.0 | 8.0 | 0.00 | 0.00 | 0.00 | 45 | 1014.0 |
| 20260831112701 | 89 | 233 | 0.0 | 4.0 | 0.00 | 0.00 | 0.00 | 45 | 1014.1 |
| 20260831112201 | 88 | 205 | 0.0 | 4.0 | 0.00 | 0.00 | 0.00 | 47 | 1014.1 |
| 20260831111201 | 89 | 297 | 2.0 | 7.0 | 0.00 | 0.00 | 0.00 | 46 | 1014.2 |